STARLINK-32336, 61004

Orbit data source: Space-Track

STARLINK-32336, 61004 is a payload satellite owned by SpaceX/Seattle (US) in LEO that was launched on Thu, 05 Sep 2024 UTC via an FALCON 9 launch vehicle from the Air Force Eastern Test Range (AFETR). Payload-class satellites include a variety of spacecraft equipped with specific instruments for various scientific and technological missions. These include communications satellites like Starlink; space stations such as the ISS; scientific satellites like the Hubble; Earth observation satellites from companies like Planet Labs, Umbra, and HawkEye 360; GPS; miniature CubeSats for education and research; and military/defense satellites.

Loading next visibility...
Identifier
61004, 2024-158Q
Orbit
LEO
Last TLE update
1 day ago
Origin
Manufacturer
SpaceX/Seattle
Mission
Operational Commercial Communications
Bus & Motor
STARLINK V2M, Unknown motor
Mass
730 kg wet, ~700 kg dry
Launch date (UTC)
2024-09-05 (9 months ago)
Launch vehicle
FALCON 9
Launch site
Air Force Eastern Test Range (AFETR)
Object type
Payload
Rocket body
Debris
Shape & HBR
Box + 2 Pan, 29 m
Radar Cross Section
33.884 m², Large (>1 m²)

Expand to show TLE details & history

TLE from 1 day ago
0 STARLINK-32336
1 61004U 24158Q   25170.35635508 -.00000258  00000-0  33995-5 0  9991
2 61004  53.1595 208.6946 0001071  91.2723 268.8401 15.30188873 45337
Epoch: 2025-06-19T08:33Z
TLE epoch observation values (Epoch: 2025-06-19T08:33:09.078Z)
Latitude
Longitude
172.58156°
Altitude
476.163 km
Speed
7.629 km/s
True Right ascension
13h 54m 46s
True Declination
0° 00' 00"
Sunlit
Object was in full shadow at epoch
Visualization orbit readout
Latitude
52.37351°
Longitude
-117.20276°
Altitude
480.896 km
Speed
7.632 km/s
Apparent Right ascension
12h 49m 10s
Apparent Declination
25° 38' 25"
Sunlit
Object is in daylight
Visualization observer readout
Local Sidereal Time
20:54:08
Azimuth
309.344° NW
Elevation
-4.643°
Doppler factor
1
Orbital elements
Apogee altitude
476.239 km
Perigee altitude
474.771 km
Semi-major axis
6,853.642 km
Eccentricity
0.00011
Inclination
53.1595°
RAAN
208.6946°
Arg. of periapsis
91.2723°
True anomaly
Unknown
Mean anomaly
268.8401°
Eccentric anomaly
Unknown
Mean motion
3.82526 °/min
Orbital period
94.11 mins
BSTAR
0.0000033995
Loading maneuver chart data...
Loading SW <> Apogee altitude chart data...
Loading historical data...
Loading historical data...
Loading historical data...
Loading historical data...
Loading historical data...
Loading historical data...
Loading historical data...

STARLINK-32336 Visibility forecast

Observer location: undefined°, undefined°

Span
Click to sort rows by Start time (UTC) header in descending order
Start Az.
Max El. time (UTC)
Max El. Az.
Max El.
End time (UTC)
End Az.
5 mins2025-06-20 11:42:07.885Z321.735° NNW2025-06-20 11:44:07.885Z13.573° NNE40.351°2025-06-20 11:47:07.885Z115.356° SE
5 mins2025-06-21 04:38:07.885Z207.876° SW2025-06-21 04:40:07.885Z113.089° SE40.6°2025-06-21 04:43:07.885Z57.193° ENE
4 mins2025-06-21 06:16:07.885Z293.575° NW2025-06-21 06:18:07.885Z336.628° NNW20.703°2025-06-21 06:20:07.885Z17.697° NNE
|